Location: Erp
(42.9417°N, 1.2009°E)
Time: 14:47:43
(UTC+00:00)

Cosmos 1331 Rocket - Visible Passes

Search period start: 11 April 2026 00:00
Search period end: 21 April 2026 00:00
Orbit: 745 x 773 km, 74.0° (Epoch: 11 April)

Date Brightness Start Highest point End Pass type
(mag) Time Alt. Az. Time Alt. Az. Time Alt. Az.
11 Apr 6.5 00:38:29 14° ENE 00:38:29 14° ENE 00:39:38 10° NE visible
11 Apr 4.7 02:18:33 46° NNW 02:18:33 46° NNW 02:22:36 10° NNE visible
12 Apr 5.1 01:39:25 41° NNE 01:39:25 41° NNE 01:42:50 10° NNE visible
12 Apr 5.9 03:19:28 15° WNW 03:20:06 15° NW 03:23:06 10° NNW visible
13 Apr 5.8 01:00:15 27° NE 01:00:15 27° NE 01:02:50 10° NNE visible
13 Apr 5.5 02:40:19 24° NW 02:40:19 24° NW 02:44:10 10° N visible
14 Apr 6.4 00:21:04 16° NE 00:21:04 16° NE 00:22:29 10° NE visible
14 Apr 5.2 02:01:07 34° NNW 02:01:07 34° NNW 02:04:47 10° N visible
15 Apr 5.3 01:21:55 37° N 01:21:55 37° N 01:25:08 10° NNE visible
15 Apr 6.2 03:01:58 11° WNW 03:02:43 11° NW 03:04:20 10° NNW visible
16 Apr 5.7 00:42:41 29° NNE 00:42:41 29° NNE 00:45:16 10° NNE visible
16 Apr 5.9 02:22:44 19° NW 02:22:44 19° NW 02:26:04 10° N visible
17 Apr 6.2 00:03:25 19° NE 00:03:25 19° NE 00:05:08 10° NE visible
17 Apr 5.5 01:43:29 27° NW 01:43:29 27° NW 01:46:53 10° N visible
17 Apr 6.6 23:24:09 12° NE 23:24:09 12° NE 23:24:34 10° NE visible
18 Apr 5.4 01:04:12 34° N 01:04:12 34° N 01:07:22 10° N visible
19 Apr 5.6 00:24:54 32° NNE 00:24:54 32° NNE 00:27:38 10° NNE visible
19 Apr 6.2 02:04:56 14° NW 02:04:58 14° NW 02:07:43 10° NNW visible
19 Apr 5.9 23:45:34 23° NE 23:45:34 23° NE 23:47:39 10° NNE visible
20 Apr 5.8 01:25:37 22° NW 01:25:37 22° NW 01:28:53 10° N visible
20 Apr 6.3 23:06:12 15° NE 23:06:12 15° NE 23:07:22 10° NE visible
